LFKCLFKJ

Guest
Details From LFKC - St Catherine
To LFKJ - Napoleon Bonaparte
Flight Number -
Tags generated
Created
Modified
Stats Distance 37 nm / 68 km
Max Altitude 2,700 ft / 823 m
Waypoints 3
Social Downloads 0
Likes 0
Share VATSIM

Download

Looking for another format? Having issues loading an existing format? Contact us
Advertisement - Login to hide

Notes

Basic altitude profile: - Ascent Rate: 500ft/min - Ascent Speed: 80kts - Cruise Altitude: 8000ft - Cruise Speed: 110kts - Descent Rate: 500ft/min - Descent Speed: 75kts Options: - Use NATs: yes - Use PACOTS: yes - Use low airways: yes - Use high airways: yes

Route

LFKC VICCO LFKJ

ID Type Via Altitude (ft/m) Position (lat/lon) Dist (leg/tot) Name
O LFKC APT - 0 / 0 42.53076 / 8.79292 - / 0 nm St Catherine
VICCO FIX - 2,700 / 823 42.13944 / 8.81583 23 / 23 nm
O LFKJ APT - 0 / 0 41.92289 / 8.79959 13 / 36 nm Napoleon Bonaparte

Altitude Profile

Advertisement - Login to hide

LFKC

Details ICAO LFKC (CLY)
Name St Catherine
Region France
Timezone Europe/Paris (UTC+1.0)
Stats Elevation 208 ft / 63 m (AMSL)
Location 42.530800° 8.792980°
Runways 1
Magnetic Variation 2.461° E

METAR

LFKC 171000Z AUTO 26006KT 160V320 9999 SCT048 SCT060 OVC084 15/05 Q1015 NOSIG

Decode

TAF

TAF LFKC 170800Z 1709/1809 20010KT 9999 SCT040 BKN070 TX16/1713Z TN07/1805Z TEMPO 1712/1720 -RA SCT025TCU BKN040 TEMPO 1720/1809 21015G25KT

Decode

Departure Runways

ID Width Length Bearing (true/mag) Surface Threshold Overrun Markings Lighting
18 131 ft / 40 m 7,586 ft / 2,312 m 179.81° / 177.35° CONCRETE 0 ft / 0 m 0 ft / 0 m APP CENTERLINE EDGE THRESHOLD
36 131 ft / 40 m 7,586 ft / 2,312 m 359.81° / 357.35° CONCRETE 663 ft / 202 m 0 ft / 0 m APP CENTERLINE EDGE THRESHOLD ALSF-I

LFKJ

Details ICAO LFKJ (AJA)
Name Napoleon Bonaparte
Region France
Timezone Europe/Paris (UTC+1.0)
Stats Elevation 19 ft / 6 m (AMSL)
Location 41.921700° 8.801090°
Runways 1
Magnetic Variation 2.447° E

METAR

LFKJ 171000Z AUTO VRB01KT 9999 FEW052 SCT080 BKN230 12/06 Q1017 TEMPO SHRA BKN020TCU BKN040

Decode

TAF

TAF LFKJ 170800Z 1709/1809 05006KT 9999 SCT030 BKN060 TEMPO 1711/1721 22006KT 7000 SHRA BKN020TCU BKN040

Decode

Destination Runways

ID Width Length Bearing (true/mag) Surface Threshold Overrun Markings Lighting
02 148 ft / 45 m 7,904 ft / 2,409 m 24.84° / 22.39° CONCRETE 0 ft / 0 m 161 ft / 49 m PREC-APP CENTERLINE EDGE THRESHOLD REIL-OMNI
20 148 ft / 45 m 7,904 ft / 2,409 m 204.85° / 202.40° CONCRETE 741 ft / 226 m 230 ft / 70 m PREC-APP CENTERLINE EDGE THRESHOLD REIL-OMNI

Approach Navaids

Runway Type Ident Frequency Range Bearing (true/mag) Slope Elevation
02 DME AC 110.30 MHz 27 nm / 50 km - - 18 ft / 5 m (AMSL)
02 GS AC 110.30 MHz 27 nm / 50 km 24.85° / 22.40 ° 3.00° 19 ft / 6 m (AMSL)
02 LOC-ILS AC 110.30 MHz 27 nm / 50 km 24.85° / 22.40 ° - 19 ft / 6 m (AMSL)
02 OM OM - - 24.94° / 22.50 ° - 17 ft / 5 m (AMSL)

Popular Alternatives